Home > Weather > Bloomington > Past weeks

Flag for USA Weather for the Past 2 Weeks in Bloomington, Illinois, USA

Now
55 °F

Overcast.


Feels Like: 54 °F
Forecast: 46 / 62 °F
Wind: 6 mph from West

Location: Bloomington / Normal

Current Time: Apr 29, 2016 at 12:09:32 AM

Latest Report: Apr 28, 2016 at 10:56 PM


Visibility: 10 mi

Pressure: 30.01 "Hg

Humidity: 80%

Dew Point: 49 °F

Location of BloomingtonLocation

Historic Weather in Bloomington — Graph

°F

Bloomington Temperature Yesterday

Maximum temperature yesterday: 63 °F (at 11:56 AM)
Minimum temperature yesterday: 49 °F (at 5:56 AM)
Average temperature yesterday: 56 °F

High & Low Weather Summary for the Past Weeks

 TemperatureHumidityPressure
High82 °F (Apr 17, 3:56 PM)100% (Apr 14, 9:56 PM)30.38 "Hg (Apr 14, 9:56 PM)
Low15 °F (Apr 14, 9:56 PM)23% (Apr 14, 2:56 PM)29.65 "Hg (Apr 25, 6:56 PM)
Average61 °F69%30.02 "Hg
* Reported Apr 13 10:56 PM — Apr 28 10:56 PM, Bloomington, Weather by CustomWeather, © 2016

Note: Actual official high and low records may vary slightly from our data, if they occured in-between our weather recording intervals... More about our weather records

Advertising

Bloomington Weather History for the Previous 24 Hours

Scroll right to see more
 ConditionsComfort  
Time TempWeatherWind HumidityBarometerVisibility
10:56 PM
Thu, Apr 28
55 °FOvercast.6 mph80%30.01 "Hg10 mi
9:56 PM56 °FOvercast.8 mph77%30.01 "Hg10 mi
8:56 PM56 °FOvercast.9 mph77%30.00 "Hg10 mi
7:56 PM57 °FOvercast.12 mph72%29.97 "Hg10 mi
6:56 PM59 °FSunny.15 mph64%29.95 "Hg10 mi
5:56 PM61 °FPartly sunny.18 mph65%29.93 "Hg10 mi
4:56 PM62 °FBroken clouds.21 mph67%29.90 "Hg10 mi
3:56 PM62 °FPartly sunny.10 mph81%29.88 "Hg10 mi
2:56 PM63 °FPartly sunny.7 mph78%29.87 "Hg10 mi
1:56 PM62 °FBroken clouds.8 mph83%29.85 "Hg10 mi
12:56 PM63 °FPartly sunny.8 mph75%29.84 "Hg10 mi
11:56 AM63 °FPartly sunny.6 mph80%29.85 "Hg8 mi
10:56 AM58 °FFog.No wind93%29.84 "Hg6 mi
9:56 AM53 °FFog.6 mph100%29.83 "Hg3 mi
8:56 AM51 °FFog.6 mph100%29.83 "Hg4 mi
7:56 AM51 °FFog.5 mph100%29.81 "Hg5 mi
6:56 AM49 °FFog.5 mph100%29.78 "Hg2 mi
5:56 AM49 °FFog.6 mph100%29.75 "Hg4 mi
4:56 AM50 °FFog.8 mph100%29.74 "Hg5 mi
3:56 AM51 °FPassing clouds.12 mph100%29.73 "Hg7 mi
2:56 AM53 °FLight rain. Partly cloudy.12 mph100%29.73 "Hg7 mi
2:04 AM54 °FThundershowers. Fog.13 mph100%29.79 "Hg6 mi
12:56 AM56 °FLight rain. Fog.13 mph100%29.72 "Hg4 mi
Weather by CustomWeather, © 2016

See weather overviewHow to use our weather pages